Terminal Aerodrome Forecast
Issued by NWS Boise, ID

Home | Current Version | Previous Version | Text Only | Print | Product List | Glossary On
Versions: 1 2 3 4 5 6 7 8 9 10 11 12 13
000
FTUS45 KBOI 242324
TAFBOI
TAF
KBOI 242324Z 2500/2524 32012G22KT P6SM SKC
     FM250500 32010KT P6SM SKC
     FM251200 29006KT P6SM BKN250=

USA.gov is the U.S. government's official web portal to all federal, state and local government web resources and services.